Location: Sevilla
(37.3933°N, 5.9839°W)
Time: 13:24:30
(UTC+02:00)

Envisat - Visible Passes

Search period start: 21 May 2024 00:00
Search period end: 31 May 2024 00:00
Orbit: 762 x 764 km, 98.3° (Epoch: 20 May)

Date Brightness Start Highest point End Pass type
(mag) Time Alt. Az. Time Alt. Az. Time Alt. Az.
21 May 4.7 04:52:56 10° NE 04:57:14 27° E 05:01:18 11° SSE visible
21 May 3.9 06:31:43 10° N 06:36:09 31° WNW 06:40:33 10° SW visible
22 May 5.6 04:18:03 10° ENE 04:19:33 11° E 04:21:02 10° ESE visible
22 May 3.0 05:53:55 10° N 05:58:59 72° WNW 06:03:42 12° SSW visible
23 May 3.8 05:16:43 10° NNE 05:21:37 48° E 05:25:56 13° S visible
24 May 5.1 04:40:19 10° NE 04:44:04 20° E 04:47:46 10° SE visible
24 May 3.6 06:18:24 10° N 06:23:09 41° WNW 06:27:51 10° SW visible
25 May 3.0 05:40:48 10° NNE 05:45:54 85° ESE 05:50:32 12° SSW visible
26 May 4.3 05:03:49 10° NNE 05:08:29 35° E 05:12:46 12° SSE visible
27 May 5.4 04:27:57 10° ENE 04:30:50 15° E 04:33:43 10° SE visible
27 May 3.2 06:05:09 10° N 06:10:06 55° WNW 06:15:02 10° SSW visible
28 May 3.3 05:27:45 10° NNE 05:32:48 63° E 05:37:21 12° S visible
29 May 4.7 04:51:02 10° NE 04:55:18 27° E 04:59:31 10° SSE visible
29 May 3.9 06:29:45 10° N 06:34:13 32° WNW 06:38:39 10° SW visible
30 May 5.6 04:16:21 10° ENE 04:17:35 11° E 04:18:48 10° ESE visible
30 May 3.0 05:51:58 10° N 05:57:02 74° WNW 06:01:57 11° SSW visible
